Regional Weather Roundup
Issued by NWS Goodland, KS

Home | Current Version | Previous Version | Graphics & Text | Print | Product List | Glossary On
Versions: 1 2 3 4 5 6 7 8 9 10 11 12 13 14 15 16 17 18 19 20 21 22 23 24 25 26 27 28 29 30 31 32 33 34 35 36 37 38 39 40 41 42 43 44 45 46 47 48 49 50
000
ASUS43 KGLD 250608
RWRGLD

GOODLAND FORECAST AREA HOURLY WEATHER ROUNDUP
NATIONAL WEATHER SERVICE GOODLAND KS
1200 AM MDT WED MAY 25 2016

...OFFICIAL OBSERVATIONS...

CITY           SKY/WX    TMP DP  RH WIND       PRES   REMARKS
GOODLAND KS    CLEAR     59  55  87 SE12      29.78R
HILL CITY KS   CLOUDY    63  55  75 SE13      29.80R
IMPERIAL NEB   TSTM      56  52  86 N10G31    29.81S FOG
MCCOOK NEB     CLOUDY    62  54  74 E8        29.81F
AKRON CO       PTCLDY    57  54  89 E12       29.82S
BURLINGTON CO  CLEAR     54  51  90 NE8       29.79R
LIMON CO       CLEAR     50  46  86 W10       29.88R
$$

...UNOFFICIAL OBSERVATIONS...

CITY           SKY/WX    TMP DP  RH WIND       PRES   REMARKS
COLBY KS       CLEAR     59  59 100 E16       29.79S
GOVE KS          N/A     60  32  34 MISG        N/A
LENORA KS        N/A     60  32  34 MISG        N/A
NORTON KS      PTCLDY    63  48  59 CALM      29.79R
SHARON SPRINGS   N/A     62  58  86 SE14G21     N/A
KIT CARSON CO    N/A     54  50  86 CALM        N/A
YUMA CO          N/A     59  56  88 E8          N/A
$$




USA.gov is the U.S. government's official web portal to all federal, state and local government web resources and services.